Zurück zum Katalog

DELTA 1 DEB

AktivSSO
NORAD 42085·DEBRIS·🇺🇸 United States

Gestartet Dec 15, 1968 von Vandenberg Space Force Base

Loading…

Nächste Überflüge (nächste 24 Stunden)

TLE

AlterndSource: Space-Track

Epoche: Sep 8, 2026, 09:28 UTC

1 42085U 68114M   26251.39489764  .00000058  00000-0  40734-3 0  9999
2 42085 100.9117 310.6322 0115976 187.5242 236.2794 12.84487125599834

Verfolge DELTA 1 DEB in Echtzeit mit AllMySat

Download on the App Store